Weather History for Defiance, OH

Change the Weather History Date:

Tuesday, January 22, 2013

  Actual Average Record
Temperature  
Mean Temperature 8 °F -  
Max Temperature 12 °F 31 °F 55 °F (1999)
Min Temperature 3 °F 16 °F -21 °F (1984)
Degree Days  
Heating Degree Days 58    
Moisture  
Dew Point -2 °F    
Average Humidity 61    
Maximum Humidity 70    
Minimum Humidity 53    
Precipitation  
Precipitation 0.00 in - - ()
Sea Level Pressure  
Sea Level Pressure 30.30 in    
Wind  
Wind Speed 8 mph (West)    
Max Wind Speed 13 mph    
Max Gust Speed 23 mph    
Visibility 9 miles    
Events Snow    
Averages and records for this station are not official NWS values.
T = Trace of Precipitation, MM = Missing Value Source: NWS Daily Summary

Daily Weather History Graph

Daily Weather History Graph

Search for Another Location

Airport:

Trip Planner

Search our weather history database for the weather conditions in past years. The results will help you decide how hot, cold, wet, or windy it might be!

Date:

Astronomy

Jan. 22, 2013 Rise Set
Actual Time 7:57 AM EST 5:41 PM EST
Civil Twilight 7:27 AM EST 6:11 PM EST
Nautical Twilight 6:53 AM EST 6:45 PM EST
Astronomical Twilight 6:20 AM EST 7:18 PM EST
Moon 2:03 PM EST (1/22) 4:18 AM EST (1/22)
Length of Visible Light 10h 44m
Length of Day
9h 44m
Waxing Gibbous, 82% of the Moon is Illuminated
Jan 22
Waxing Gibbous
Jan 26
Full
Feb 3
Last Quarter
Feb 10
New
Feb 17
First Quarter

Hourly Weather History & Observations

Time (EST) Temp. Windchill Dew Point Humidity Pressure Visibility Wind Dir Wind Speed Gust Speed Precip Events Conditions
12:53 AM 8.1 °F -5.3 °F -0.9 °F 67% 30.21 in 9.0 mi West 9.2 mph 16.1 mph N/A   Overcast
1:53 AM 8.1 °F -6.2 °F -2.0 °F 64% 30.20 in 10.0 mi West 10.4 mph 23.0 mph 0.00 in   Mostly Cloudy
2:15 AM 6.8 °F -4.8 °F -2.2 °F 67% 30.17 in 10.0 mi West 6.9 mph 17.3 mph N/A   Mostly Cloudy
2:53 AM 7.0 °F -9.1 °F -2.0 °F 67% 30.22 in 10.0 mi West 12.7 mph 17.3 mph N/A   Mostly Cloudy
3:08 AM 6.8 °F -6.9 °F -2.2 °F 67% 30.19 in 10.0 mi West 9.2 mph 17.3 mph N/A   Scattered Clouds
3:53 AM 6.1 °F -7.8 °F -4.0 °F 63% 30.24 in 10.0 mi West 9.2 mph 17.3 mph N/A   Clear
4:53 AM 6.1 °F -8.7 °F -4.0 °F 63% 30.25 in 10.0 mi West 10.4 mph 18.4 mph N/A   Clear
5:53 AM 5.0 °F -5.6 °F -4.0 °F 66% 30.27 in 10.0 mi West 5.8 mph 16.1 mph N/A   Clear
6:53 AM 5.0 °F -10.8 °F -4.0 °F 66% 30.30 in 10.0 mi West 11.5 mph 17.3 mph N/A   Clear
7:53 AM 3.9 °F -9.4 °F -4.0 °F 70% 30.31 in 10.0 mi WSW 8.1 mph - N/A   Clear
8:53 AM 5.0 °F -10.0 °F -4.0 °F 66% 30.33 in 10.0 mi WSW 10.4 mph 18.4 mph N/A   Clear
9:53 AM 7.0 °F -1.7 °F -2.9 °F 64% 30.35 in 10.0 mi West 4.6 mph 20.7 mph N/A   Partly Cloudy
10:28 AM 8.6 °F -3.7 °F -2.2 °F 62% 30.31 in 10.0 mi WSW 8.1 mph 16.1 mph N/A   Mostly Cloudy
10:53 AM 10.0 °F -2.9 °F -2.0 °F 58% 30.36 in 10.0 mi WNW 9.2 mph - N/A   Mostly Cloudy
11:53 AM 10.0 °F -2.9 °F -2.0 °F 58% 30.36 in 7.0 mi WSW 9.2 mph 20.7 mph N/A   Overcast
12:26 PM 10.4 °F -1.5 °F -2.2 °F 57% 30.30 in 10.0 mi West 8.1 mph 16.1 mph 0.00 in   Overcast
12:53 PM 10.9 °F 1.4 °F -2.0 °F 56% 30.33 in 10.0 mi Variable 5.8 mph - 0.00 in   Overcast
1:53 PM 12.0 °F 0.5 °F -2.0 °F 53% 30.32 in 10.0 mi WSW 8.1 mph 19.6 mph 0.00 in   Overcast
2:34 PM 10.4 °F -1.5 °F -0.4 °F 62% 30.28 in 5.0 mi West 8.1 mph - 0.00 in Snow Light Snow
2:51 PM 12.2 °F 0.7 °F -2.2 °F 53% 30.28 in 10.0 mi West 8.1 mph - 0.00 in   Overcast
2:53 PM 12.0 °F -0.4 °F -2.0 °F 53% 30.33 in 10.0 mi West 9.2 mph - 0.00 in   Overcast
3:02 PM 10.4 °F -0.4 °F -0.4 °F 62% 30.28 in 5.0 mi Variable 6.9 mph - 0.00 in Snow Light Snow
3:17 PM 10.4 °F -0.4 °F -0.4 °F 62% 30.28 in 7.0 mi West 6.9 mph 20.7 mph 0.00 in   Overcast
3:24 PM 12.2 °F 1.7 °F -0.4 °F 57% 30.28 in 8.0 mi Variable 6.9 mph - 0.00 in Snow Light Snow
3:53 PM 10.9 °F 0.2 °F 1.0 °F 64% 30.33 in 3.0 mi Variable 6.9 mph - 0.00 in Snow Light Snow
4:24 PM 12.2 °F 0.7 °F -0.4 °F 57% 30.28 in 10.0 mi West 8.1 mph - 0.00 in   Overcast
4:53 PM 10.9 °F 1.4 °F -0.9 °F 59% 30.33 in 10.0 mi Variable 5.8 mph - 0.00 in   Mostly Cloudy
5:06 PM 10.4 °F 0.8 °F -0.4 °F 62% 30.28 in 10.0 mi WNW 5.8 mph - N/A   Mostly Cloudy
5:53 PM 10.9 °F 2.9 °F -0.9 °F 59% 30.34 in 10.0 mi Variable 4.6 mph - N/A   Mostly Cloudy
6:53 PM 10.0 °F -0.9 °F -2.9 °F 56% 30.35 in 10.0 mi WNW 6.9 mph - N/A   Mostly Cloudy
7:53 PM 8.1 °F -0.5 °F -5.1 °F 55% 30.35 in 10.0 mi WNW 4.6 mph - N/A   Clear
8:53 PM 5.0 °F - -4.0 °F 66% 30.35 in 10.0 mi Calm Calm - N/A   Clear
9:53 PM 7.0 °F 0.1 °F -4.0 °F 61% 30.35 in 10.0 mi SW 3.5 mph - N/A   Clear
10:53 PM 7.0 °F - -2.9 °F 64% 30.35 in 10.0 mi Calm Calm - N/A   Clear
11:53 PM 8.1 °F -0.5 °F -2.0 °F 64% 30.35 in 10.0 mi WSW 4.6 mph - N/A   Clear